Weather History for KGDV - October, 2013

Change the Weather History Date:

Monday, October 28, 2013

  Actual Average (WUND) Record (WUND)
Temperature  
Mean Temperature 26 °F -  
Max Temperature 28 °F - - (-1)
Min Temperature 24 °F - - (-1)
Degree Days  
Heating Degree Days 39    
Moisture  
Dew Point 21 °F    
Average Humidity 83    
Maximum Humidity 93    
Minimum Humidity 74    
Precipitation  
Precipitation 0.01 in - - ()
Sea Level Pressure  
Sea Level Pressure 30.36 in    
Wind  
Wind Speed 13 mph (ENE)    
Max Wind Speed 20 mph    
Max Gust Speed 21 mph    
Visibility 7 miles    
Events      
Averages and records for this station are not official NWS values.
T = Trace of Precipitation, MM = Missing Value Source: NWS Daily Summary

Daily Weather History Graph

Daily Weather History Graph

Search for Another Location

Airport or City:

Trip Planner

Search our weather history database for the weather conditions in past years. The results will help you decide how hot, cold, wet, or windy it might be!

Date:

Astronomy

Oct. 28, 2013 Rise Set
Actual Time 7:36 AM MDT 5:48 PM MDT
Civil Twilight 7:05 AM MDT 6:20 PM MDT
Nautical Twilight 6:29 AM MDT 6:55 PM MDT
Astronomical Twilight 5:53 AM MDT 7:31 PM MDT
Moon 1:09 AM MDT (10/28) 2:52 PM MDT (10/28)
Length of Visible Light 11h 15m
Length of Day
10h 11m
Waning Crescent, 33% of the Moon is Illuminated
Oct 28
Waning Crescent
Nov 3
New
Nov 9
First Quarter
Nov 17
Full
Nov 25
Last Quarter

Hourly Weather History & Observations

Time (MDT) Temp. Windchill Dew Point Humidity Pressure Visibility Wind Dir Wind Speed Gust Speed Precip Events Conditions
12:15 AM 28.4 °F 15.4 °F 24.8 °F 86% 30.31 in 4.0 mi NE 19.6 mph - N/A   Overcast
12:35 AM 28.4 °F 17.0 °F 24.8 °F 86% 30.32 in 3.0 mi NE 15.0 mph - N/A   Overcast
12:55 AM 28.4 °F 17.0 °F 24.8 °F 86% 30.33 in 3.0 mi NE 15.0 mph - N/A   Overcast
1:15 AM 28.4 °F 17.5 °F 24.8 °F 86% 30.34 in 3.0 mi ENE 13.8 mph - N/A   Overcast
1:35 AM 26.6 °F 14.7 °F 24.8 °F 93% 30.35 in 3.0 mi NE 15.0 mph - N/A   Overcast
1:55 AM 26.6 °F 15.2 °F 23.0 °F 86% 30.35 in 5.0 mi NE 13.8 mph 19.6 mph N/A   Overcast
2:35 AM 26.6 °F 15.2 °F 21.2 °F 80% 30.36 in 10.0 mi NE 13.8 mph - N/A   Overcast
2:55 AM 24.8 °F 11.9 °F 21.2 °F 86% 30.36 in 10.0 mi NE 16.1 mph - N/A   Overcast
3:15 AM 24.8 °F 13.4 °F 21.2 °F 86% 30.36 in 10.0 mi NE 12.7 mph - N/A   Overcast
3:35 AM 24.8 °F 13.4 °F 19.4 °F 80% 30.36 in 10.0 mi NE 12.7 mph - N/A   Overcast
3:55 AM 24.8 °F 13.4 °F 19.4 °F 80% 30.35 in 10.0 mi NE 12.7 mph - N/A   Overcast
4:15 AM 24.8 °F 12.9 °F 21.2 °F 86% 30.37 in 10.0 mi NE 13.8 mph - N/A   Overcast
4:35 AM 24.8 °F 12.9 °F 21.2 °F 86% 30.37 in 10.0 mi NE 13.8 mph - N/A   Overcast
4:55 AM 24.8 °F 14.6 °F 21.2 °F 86% 30.37 in 10.0 mi NE 10.4 mph - N/A   Overcast
5:15 AM 24.8 °F 14.0 °F 21.2 °F 86% 30.38 in 10.0 mi ENE 11.5 mph - N/A   Overcast
5:35 AM 24.8 °F 12.4 °F 21.2 °F 86% 30.38 in 10.0 mi ENE 15.0 mph - N/A   Overcast
5:55 AM 24.8 °F 12.4 °F 21.2 °F 86% 30.38 in 10.0 mi ENE 15.0 mph - N/A   Overcast
6:15 AM 24.8 °F 12.9 °F 21.2 °F 86% 30.38 in 10.0 mi ENE 13.8 mph - N/A   Overcast
6:35 AM 24.8 °F 14.6 °F 21.2 °F 86% 30.38 in 10.0 mi ENE 10.4 mph - N/A   Overcast
6:55 AM 24.8 °F 12.9 °F 19.4 °F 80% 30.39 in 10.0 mi East 13.8 mph - N/A   Overcast
7:15 AM 24.8 °F 13.4 °F 19.4 °F 80% 30.39 in 10.0 mi East 12.7 mph - N/A   Overcast
7:35 AM 24.8 °F 13.4 °F 19.4 °F 80% 30.40 in 10.0 mi East 12.7 mph - N/A   Overcast
7:55 AM 24.8 °F 14.6 °F 19.4 °F 80% 30.40 in 10.0 mi ENE 10.4 mph - N/A   Overcast
8:15 AM 24.8 °F 12.9 °F 19.4 °F 80% 30.40 in 10.0 mi East 13.8 mph - N/A   Overcast
8:35 AM 24.8 °F 12.9 °F 19.4 °F 80% 30.41 in 10.0 mi ENE 13.8 mph - N/A   Overcast
8:55 AM 24.8 °F 15.3 °F 19.4 °F 80% 30.41 in 10.0 mi East 9.2 mph - N/A   Overcast
9:15 AM 24.8 °F 14.6 °F 19.4 °F 80% 30.41 in 10.0 mi ENE 10.4 mph - N/A   Overcast
9:35 AM 24.8 °F 14.6 °F 19.4 °F 80% 30.42 in 10.0 mi ENE 10.4 mph - N/A   Mostly Cloudy
9:55 AM 24.8 °F 13.4 °F 19.4 °F 80% 30.42 in 10.0 mi ENE 12.7 mph - N/A   Scattered Clouds
10:15 AM 24.8 °F 13.4 °F 19.4 °F 80% 30.41 in 10.0 mi NE 12.7 mph - N/A   Mostly Cloudy
10:35 AM 24.8 °F 11.9 °F 19.4 °F 80% 30.41 in 10.0 mi ENE 16.1 mph - N/A   Overcast
10:55 AM 24.8 °F 12.4 °F 19.4 °F 80% 30.41 in 10.0 mi ENE 15.0 mph - N/A   Overcast
11:15 AM 24.8 °F 11.9 °F 19.4 °F 80% 30.41 in 10.0 mi ENE 16.1 mph - N/A   Overcast
11:35 AM 24.8 °F 11.9 °F 19.4 °F 80% 30.41 in 10.0 mi East 16.1 mph 20.7 mph N/A   Overcast
11:55 AM 26.6 °F 14.3 °F 19.4 °F 74% 30.40 in 10.0 mi ENE 16.1 mph 20.7 mph N/A   Overcast
12:35 PM 26.6 °F 14.7 °F 19.4 °F 74% 30.39 in 10.0 mi East 15.0 mph 19.6 mph N/A   Overcast
1:15 PM 26.6 °F 14.7 °F 19.4 °F 74% 30.37 in 10.0 mi ENE 15.0 mph - N/A   Overcast
1:35 PM 26.6 °F 14.7 °F 19.4 °F 74% 30.37 in 10.0 mi East 15.0 mph - N/A   Overcast
1:55 PM 26.6 °F 16.8 °F 19.4 °F 74% 30.36 in 10.0 mi East 10.4 mph - N/A   Overcast
2:15 PM 26.6 °F 14.7 °F 21.2 °F 80% 30.36 in 8.0 mi East 15.0 mph - N/A   Overcast
2:35 PM 26.6 °F 15.2 °F 21.2 °F 80% 30.36 in 10.0 mi East 13.8 mph - N/A   Overcast
2:55 PM 26.6 °F 15.7 °F 21.2 °F 80% 30.36 in 3.0 mi East 12.7 mph - N/A   Overcast
3:35 PM 26.6 °F 16.2 °F 21.2 °F 80% 30.35 in 5.0 mi East 11.5 mph - N/A   Mostly Cloudy
3:55 PM 26.6 °F 15.7 °F 21.2 °F 80% 30.35 in 2.0 mi East 12.7 mph - N/A   Overcast
4:15 PM 26.6 °F 15.2 °F 21.2 °F 80% 30.34 in 2.0 mi East 13.8 mph - N/A   Overcast
4:35 PM 26.6 °F 16.8 °F 21.2 °F 80% 30.34 in 2.5 mi East 10.4 mph - N/A   Overcast
4:55 PM 26.6 °F 16.2 °F 21.2 °F 80% 30.33 in 2.5 mi East 11.5 mph - N/A   Overcast
5:15 PM 26.6 °F 16.2 °F 21.2 °F 80% 30.33 in 1.5 mi East 11.5 mph - 0.01 in   Overcast
5:35 PM 26.6 °F 16.8 °F 23.0 °F 86% 30.32 in 0.8 mi East 10.4 mph - 0.01 in   Overcast
5:55 PM 24.8 °F 14.6 °F 21.2 °F 86% 30.33 in 0.8 mi East 10.4 mph - 0.01 in   Overcast
6:15 PM 24.8 °F 15.3 °F 21.2 °F 86% 30.33 in 2.0 mi East 9.2 mph - N/A   Overcast
6:35 PM 24.8 °F 15.3 °F 23.0 °F 93% 30.33 in 5.0 mi East 9.2 mph - N/A   Overcast
6:55 PM 24.8 °F 16.1 °F 21.2 °F 86% 30.33 in 2.5 mi East 8.1 mph - N/A   Overcast
7:15 PM 24.8 °F 15.3 °F 21.2 °F 86% 30.33 in 1.8 mi East 9.2 mph - N/A   Overcast
7:35 PM 24.8 °F 16.1 °F 21.2 °F 86% 30.33 in 2.5 mi East 8.1 mph - N/A   Scattered Clouds
7:55 PM 24.8 °F 14.6 °F 21.2 °F 86% 30.32 in 7.0 mi East 10.4 mph - N/A   Mostly Cloudy
8:15 PM 24.8 °F 16.9 °F 21.2 °F 86% 30.32 in 4.0 mi ENE 6.9 mph - N/A   Overcast
8:35 PM 24.8 °F 16.1 °F 21.2 °F 86% 30.31 in 10.0 mi ENE 8.1 mph - N/A   Overcast
8:55 PM 24.8 °F 16.1 °F 21.2 °F 86% 30.31 in 10.0 mi ENE 8.1 mph - N/A   Overcast
9:15 PM 24.8 °F 16.9 °F 21.2 °F 86% 30.31 in 10.0 mi East 6.9 mph - N/A   Overcast
9:35 PM 24.8 °F 16.9 °F 21.2 °F 86% 30.31 in 10.0 mi East 6.9 mph - N/A   Overcast
9:55 PM 24.8 °F 16.1 °F 21.2 °F 86% 30.31 in 7.0 mi East 8.1 mph - N/A   Overcast
10:15 PM 24.8 °F 16.1 °F 21.2 °F 86% 30.31 in 3.0 mi East 8.1 mph - N/A   Mostly Cloudy
10:35 PM 24.8 °F 17.9 °F 21.2 °F 86% 30.31 in 5.0 mi East 5.8 mph - N/A   Mostly Cloudy
10:55 PM 24.8 °F 15.3 °F 21.2 °F 86% 30.31 in 7.0 mi East 9.2 mph - N/A   Overcast
11:15 PM 24.8 °F 14.6 °F 21.2 °F 86% 30.30 in 5.0 mi East 10.4 mph - N/A   Overcast
11:35 PM 24.8 °F 15.3 °F 21.2 °F 86% 30.30 in 9.0 mi East 9.2 mph - N/A   Overcast
11:55 PM 24.8 °F 15.3 °F 21.2 °F 86% 30.29 in 5.0 mi East 9.2 mph - N/A   Overcast